Gaylord, MI

7:08 PM EST on February 06, 2016 (GMT -0500)
Otsego County

Weather History for KGLR - February, 2013

Change the Weather History Date:

Friday, February 1, 2013

  Actual Average Record
Temperature  
Mean Temperature 10 °F -  
Max Temperature 14 °F 28 °F 44 °F (1970)
Min Temperature 6 °F 10 °F -15 °F (1959)
Degree Days  
Heating Degree Days 55    
Moisture  
Dew Point 6 °F    
Average Humidity 80    
Maximum Humidity 87    
Minimum Humidity 67    
Precipitation  
Precipitation 0.01 in - - ()
Sea Level Pressure  
Sea Level Pressure 30.00 in    
Wind  
Wind Speed 9 mph (West)    
Max Wind Speed 20 mph    
Max Gust Speed 25 mph    
Visibility 3 miles    
Events Fog , Snow    
Averages and records for this station are not official NWS values.
T = Trace of Precipitation, MM = Missing Value Source: NWS Daily Summary

Daily Weather History Graph

Daily Weather History Graph

Search for Another Location

Airport or City:

Trip Planner

Search our weather history database for the weather conditions in past years. The results will help you decide how hot, cold, wet, or windy it might be!

Date:

Astronomy

Feb. 01, 2013 Rise Set
Actual Time 7:58 AM EST 5:47 PM EST
Civil Twilight 7:27 AM EST 6:18 PM EST
Nautical Twilight 6:51 AM EST 6:53 PM EST
Astronomical Twilight 6:17 AM EST 7:27 PM EST
Moon No Moon Rise 10:13 AM EST (2/1)
Length of Visible Light 10h 51m
Length of Day
9h 48m
Waning Gibbous, 70% of the Moon is Illuminated
Feb 1
Waning Gibbous
Feb 3
Last Quarter
Feb 10
New
Feb 17
First Quarter
Feb 25
Full

Hourly Weather History & Observations

Time (EST) Temp. Windchill Dew Point Humidity Pressure Visibility Wind Dir Wind Speed Gust Speed Precip Events Conditions
12:53 AM 12.0 °F 1.5 °F 8.1 °F 84% 29.84 in 10.0 mi WNW 6.9 mph - 0.00 in   Overcast
1:53 AM 10.9 °F 0.2 °F 7.0 °F 84% 29.86 in 9.0 mi WNW 6.9 mph - 0.00 in   Overcast
2:53 AM 10.9 °F 1.4 °F 7.0 °F 84% 29.88 in 7.0 mi WNW 5.8 mph - 0.00 in   Overcast
3:53 AM 10.9 °F 1.4 °F 7.0 °F 84% 29.90 in 4.0 mi WNW 5.8 mph - 0.00 in Snow Light Snow
4:10 AM 10.4 °F 2.2 °F 6.8 °F 85% 29.83 in 5.0 mi WNW 4.6 mph - 0.00 in Snow Light Snow
4:53 AM 10.9 °F 1.4 °F 7.0 °F 84% 29.93 in 9.0 mi WNW 5.8 mph - 0.00 in   Overcast
5:23 AM 10.4 °F 0.8 °F 6.8 °F 85% 29.86 in 8.0 mi West 5.8 mph - 0.00 in Snow Light Snow
5:31 AM 10.4 °F 2.2 °F 6.8 °F 85% 29.86 in 5.0 mi WNW 4.6 mph - 0.00 in Snow Light Snow
5:53 AM 10.0 °F 1.8 °F 7.0 °F 87% 29.96 in 3.0 mi WNW 4.6 mph - 0.00 in Snow Light Snow
6:53 AM 10.9 °F 1.4 °F 7.0 °F 84% 29.99 in 4.0 mi WNW 5.8 mph - 0.00 in Snow Light Snow
7:30 AM 10.4 °F -1.5 °F 6.8 °F 85% 29.92 in 2.5 mi West 8.1 mph - 0.00 in Snow Light Snow
7:43 AM 10.4 °F 0.8 °F 6.8 °F 85% 29.93 in 4.0 mi WNW 5.8 mph - 0.00 in Snow Light Snow
7:53 AM 10.9 °F 0.2 °F 6.1 °F 81% 30.01 in 2.5 mi WNW 6.9 mph 17.3 mph 0.00 in Snow Light Snow
8:00 AM 10.4 °F -1.5 °F 6.8 °F 85% 29.93 in 1.5 mi WNW 8.1 mph 18.4 mph 0.00 in Snow Light Snow
8:13 AM 10.4 °F -0.4 °F 6.8 °F 85% 29.94 in 0.8 mi Variable 6.9 mph 16.1 mph 0.00 in Snow Light Snow
8:27 AM 10.4 °F -0.4 °F 6.8 °F 85% 29.95 in 0.2 mi WNW 6.9 mph - 0.00 in Fog , Snow Snow
8:39 AM 10.4 °F 4.0 °F 6.8 °F 85% 29.95 in 0.5 mi WNW 3.5 mph - 0.00 in Fog , Snow Light Snow
8:49 AM 10.4 °F 0.8 °F 6.8 °F 85% 29.96 in 1.5 mi WNW 5.8 mph - 0.00 in Snow Light Snow
8:53 AM 10.9 °F -0.8 °F 7.0 °F 84% 30.04 in 1.8 mi WNW 8.1 mph - 0.00 in Snow Light Snow
8:58 AM 10.4 °F -1.5 °F 6.8 °F 85% 29.96 in 2.0 mi WNW 8.1 mph - 0.00 in Snow Light Snow
9:13 AM 10.4 °F -1.5 °F 6.8 °F 85% 29.97 in 4.0 mi West 8.1 mph - 0.00 in Snow Light Snow
9:27 AM 10.4 °F -4.1 °F 6.8 °F 85% 29.97 in 2.5 mi WNW 11.5 mph 17.3 mph 0.00 in Snow Light Snow
9:41 AM 10.4 °F -2.4 °F 6.8 °F 85% 29.98 in 1.0 mi West 9.2 mph - 0.00 in Snow Light Snow
9:53 AM 10.9 °F -1.8 °F 7.0 °F 84% 30.07 in 1.2 mi WNW 9.2 mph - 0.00 in Snow Light Snow
10:53 AM 12.9 °F 1.6 °F 7.0 °F 77% 30.09 in 1.5 mi West 8.1 mph 17.3 mph 0.00 in Snow Light Snow
10:59 AM 12.2 °F -0.2 °F 6.8 °F 79% 30.00 in 2.0 mi West 9.2 mph 17.3 mph 0.00 in Snow Light Snow
11:01 AM 12.2 °F -0.2 °F 6.8 °F 79% 30.00 in 3.0 mi West 9.2 mph - 0.00 in Snow Light Snow
11:23 AM 12.2 °F -2.5 °F 6.8 °F 79% 30.01 in 5.0 mi West 12.7 mph 18.4 mph 0.00 in   Haze
11:50 AM 12.2 °F 0.7 °F 6.8 °F 79% 30.01 in 2.5 mi West 8.1 mph - 0.00 in Snow Light Snow
11:53 AM 12.9 °F -0.2 °F 7.0 °F 77% 30.10 in 3.0 mi WNW 10.4 mph 16.1 mph 0.00 in Snow Light Snow
12:38 PM 12.2 °F -0.2 °F 6.8 °F 79% 30.01 in 1.8 mi WNW 9.2 mph - 0.00 in Snow Light Snow
12:53 PM 14.0 °F 3.9 °F 8.1 °F 77% 30.09 in 2.5 mi WNW 6.9 mph - 0.00 in Snow Light Snow
1:00 PM 14.0 °F 0.5 °F 6.8 °F 73% 30.00 in 4.0 mi West 11.5 mph 20.7 mph 0.00 in Snow Light Snow
1:15 PM 12.2 °F -0.2 °F 6.8 °F 79% 30.00 in 1.8 mi WNW 9.2 mph 19.6 mph 0.00 in Snow Light Snow
1:20 PM 12.2 °F 0.7 °F 8.6 °F 85% 30.00 in 0.2 mi West 8.1 mph 17.3 mph 0.00 in Snow Heavy Snow
1:32 PM 12.2 °F -3.7 °F 8.6 °F 85% 30.01 in 0.2 mi West 15.0 mph 21.9 mph 0.00 in Fog , Snow Snow
1:53 PM 12.0 °F -4.5 °F 8.1 °F 84% 30.09 in 0.8 mi WSW 16.1 mph 23.0 mph 0.01 in Snow Light Snow
1:59 PM 12.2 °F -5.8 °F 6.8 °F 79% 30.01 in 1.0 mi WSW 19.6 mph - 0.00 in Snow Light Snow
2:19 PM 12.2 °F -3.7 °F 6.8 °F 79% 30.01 in 2.5 mi WSW 15.0 mph - 0.00 in Snow Light Snow
2:29 PM 12.2 °F -5.8 °F 6.8 °F 79% 30.01 in 1.2 mi WSW 19.6 mph - 0.00 in Snow Light Snow
2:48 PM 12.2 °F -3.7 °F 6.8 °F 79% 30.01 in 3.0 mi WSW 15.0 mph - 0.00 in Snow Light Snow
2:53 PM 12.0 °F -4.5 °F 5.0 °F 73% 30.09 in 3.0 mi WSW 16.1 mph - 0.00 in Snow Light Snow
3:02 PM 12.2 °F -2.5 °F 5.0 °F 73% 30.01 in 2.5 mi WSW 12.7 mph - 0.00 in   Haze
3:04 PM 12.2 °F -4.3 °F 5.0 °F 73% 30.01 in 3.0 mi WSW 16.1 mph 23.0 mph 0.00 in Snow Light Snow
3:07 PM 12.2 °F -4.8 °F 5.0 °F 73% 30.01 in 2.5 mi WSW 17.3 mph 23.0 mph 0.00 in Snow Light Snow
3:14 PM 12.2 °F -4.8 °F 5.0 °F 73% 30.01 in 3.0 mi West 17.3 mph 23.0 mph 0.00 in   Haze
3:44 PM 10.4 °F -4.8 °F 6.8 °F 85% 30.02 in 1.8 mi WSW 12.7 mph - 0.00 in Snow Light Snow
3:53 PM 10.9 °F -3.4 °F 6.1 °F 81% 30.11 in 2.5 mi WSW 11.5 mph - 0.00 in Snow Light Snow
4:05 PM 10.4 °F -4.8 °F 6.8 °F 85% 30.02 in 1.0 mi WSW 12.7 mph - 0.00 in Snow Light Snow
4:26 PM 10.4 °F -4.8 °F 5.0 °F 79% 30.02 in 3.0 mi WSW 12.7 mph 20.7 mph 0.00 in Snow Light Snow
4:36 PM 10.4 °F -5.4 °F 5.0 °F 79% 30.02 in 2.5 mi WSW 13.8 mph - 0.00 in Snow Light Snow
4:44 PM 10.4 °F -7.2 °F 5.0 °F 79% 30.02 in 1.8 mi WSW 17.3 mph 21.9 mph 0.00 in Snow Light Snow
5:02 PM 10.4 °F -6.6 °F 3.2 °F 73% 30.02 in 2.0 mi WSW 16.1 mph 20.7 mph 0.00 in Snow Light Snow
5:14 PM 10.4 °F -5.4 °F 3.2 °F 73% 30.02 in 7.0 mi West 13.8 mph 18.4 mph 0.00 in   Overcast
5:32 PM 10.4 °F -6.0 °F 1.4 °F 67% 30.02 in 6.0 mi WSW 15.0 mph - 0.00 in   Haze
5:53 PM 9.0 °F -7.9 °F 3.0 °F 77% 30.11 in 6.0 mi WSW 15.0 mph - 0.00 in   Haze
6:44 PM 8.6 °F -7.7 °F 3.2 °F 79% 30.02 in 1.8 mi SW 13.8 mph - 0.00 in Snow Light Snow
6:53 PM 8.1 °F -8.4 °F 3.0 °F 80% 30.12 in 2.0 mi SW 13.8 mph - 0.00 in Snow Light Snow
7:01 PM 8.6 °F -8.3 °F 1.4 °F 73% 30.02 in 7.0 mi WSW 15.0 mph - 0.00 in   Overcast
7:53 PM 8.1 °F -10.7 °F 1.9 °F 76% 30.12 in 4.0 mi SW 18.4 mph 25.3 mph 0.00 in Snow Light Snow
8:53 PM 7.0 °F -7.5 °F 1.9 °F 80% 30.10 in 6.0 mi SW 10.4 mph - 0.00 in Snow Light Snow
9:53 PM 7.0 °F -8.3 °F 1.9 °F 80% 30.09 in 8.0 mi SSW 11.5 mph - 0.00 in   Overcast
10:16 PM 6.8 °F -9.3 °F 1.4 °F 79% 30.00 in 3.0 mi SW 12.7 mph - 0.00 in Snow Light Snow
10:39 PM 6.8 °F -7.8 °F 1.4 °F 79% 30.00 in 4.0 mi SW 10.4 mph - 0.00 in Snow Light Snow
10:53 PM 6.1 °F -9.5 °F 1.9 °F 83% 30.09 in 4.0 mi SW 11.5 mph - 0.00 in Snow Light Snow
11:09 PM 6.8 °F -8.6 °F 1.4 °F 79% 30.00 in 3.0 mi SW 11.5 mph - 0.00 in Snow Light Snow
11:24 PM 6.8 °F -7.8 °F 1.4 °F 79% 29.99 in 1.8 mi SW 10.4 mph - 0.00 in Snow Light Snow
11:39 PM 6.8 °F -8.6 °F 1.4 °F 79% 29.99 in 2.5 mi SW 11.5 mph - 0.00 in Snow Light Snow
11:53 PM 7.0 °F -7.5 °F 3.0 °F 84% 30.08 in 1.5 mi SW 10.4 mph - 0.00 in Snow Light Snow